Ephrata, WA

5:32 AM PDT on March 25, 2017 (GMT -0700)
Ephrata Municipal

Weather History for KEPH - June, 2014

Change the Weather History Date:

Wednesday, June 4, 2014

  Actual Average Record
Temperature  
Mean Temperature 73 °F 64 °F  
Max Temperature 87 °F 77 °F 100 °F (1969)
Min Temperature 58 °F 51 °F 39 °F (1962)
Degree Days  
Heating Degree Days 0 3  
Month to date heating degree days 0 13  
Since 1 June heating degree days 0 13  
Since 1 July heating degree days 5735 5922  
Cooling Degree Days 8 2  
Month to date cooling degree days 34 8  
Year to date cooling degree days 78 45  
Since 1 June cooling degree days 34 8  
Growing Degree Days 22 (Base 50)    
Moisture  
Dew Point 33 °F    
Average Humidity 27    
Maximum Humidity 44    
Minimum Humidity 10    
Precipitation  
Precipitation 0.00 in 0.02 in 0.97 in (1951)
Month to date precipitation 0.00 0.10  
Year to date precipitation 2.80 3.56  
Sea Level Pressure  
Sea Level Pressure 29.90 in    
Wind  
Wind Speed 11 mph (West)    
Max Wind Speed 30 mph    
Max Gust Speed 35 mph    
Visibility 10 miles    
Events      
T = Trace of Precipitation, MM = Missing Value Source: NWS Daily Summary

Daily Weather History Graph

Daily Weather History Graph

Search for Another Location

Airport or City:

Trip Planner

Search our weather history database for the weather conditions in past years. The results will help you decide how hot, cold, wet, or windy it might be!

Date:

Astronomy

Jun. 04, 2014 Rise Set
Actual Time 5:03 AM PDT 8:49 PM PDT
Civil Twilight 4:24 AM PDT 9:28 PM PDT
Nautical Twilight 3:31 AM PDT 10:22 PM PDT
Astronomical Twilight 2:15 AM PDT 11:39 PM PDT
Moon 11:47 AM PDT (6/4) 12:32 AM PDT (6/4)
Length of Visible Light 17h 04m
Length of Day
15h 45m
Waxing Crescent, 40% of the Moon is Illuminated
Jun 4
Waxing Crescent
Jun 5
First Quarter
Jun 12
Full
Jun 19
Last Quarter
Jun 27
New

Hourly Weather History & Observations

Time (PDT) Temp. Dew Point Humidity Pressure Visibility Wind Dir Wind Speed Gust Speed Precip Events Conditions
12:53 AM 64.9 °F 39.0 °F 39% 29.91 in 10.0 mi NNW 9.2 mph - N/A   Clear
1:53 AM 64.0 °F 39.9 °F 41% 29.91 in 10.0 mi NNW 8.1 mph - N/A   Clear
2:53 AM 63.0 °F 39.0 °F 41% 29.92 in 10.0 mi WNW 8.1 mph - N/A   Clear
3:53 AM 62.1 °F 37.9 °F 41% 29.92 in 10.0 mi NW 11.5 mph - N/A   Clear
4:53 AM 59.0 °F 37.9 °F 46% 29.93 in 10.0 mi North 6.9 mph - N/A   Clear
5:53 AM 60.1 °F 37.0 °F 42% 29.94 in 10.0 mi WNW 4.6 mph - N/A   Clear
6:53 AM 64.0 °F 37.0 °F 37% 29.96 in 10.0 mi Calm Calm - N/A   Clear
8:53 AM 69.1 °F 36.0 °F 30% 29.98 in 10.0 mi Calm Calm - N/A   Clear
9:53 AM 73.0 °F 34.0 °F 24% 29.97 in 10.0 mi SSW 8.1 mph - N/A   Clear
10:53 AM 73.9 °F 34.0 °F 23% 29.96 in 10.0 mi SSW 9.2 mph - N/A   Clear
11:53 AM 78.1 °F 35.1 °F 21% 29.95 in 10.0 mi SSW 15.0 mph 24.2 mph N/A   Clear
12:53 PM 80.1 °F 30.9 °F 17% 29.92 in 10.0 mi South 15.0 mph 23.0 mph N/A   Clear
1:53 PM 82.0 °F 28.9 °F 14% 29.90 in 10.0 mi SW 13.8 mph 20.7 mph N/A   Clear
2:53 PM 84.0 °F 28.0 °F 13% 29.88 in 10.0 mi SSW 15.0 mph 21.9 mph N/A   Clear
3:53 PM 84.9 °F 27.0 °F 12% 29.85 in 10.0 mi West 8.1 mph - N/A   Clear
4:53 PM 86.0 °F 24.1 °F 10% 29.83 in 10.0 mi West 9.2 mph 23.0 mph N/A   Clear
5:53 PM 84.0 °F 30.0 °F 14% 29.82 in 10.0 mi WSW 15.0 mph - N/A   Clear
6:53 PM 82.9 °F 19.0 °F 9% 29.82 in 10.0 mi WNW 18.4 mph - N/A   Clear
8:53 PM 73.9 °F 28.0 °F 18% 29.83 in 10.0 mi WNW 21.9 mph 28.8 mph N/A   Clear
9:53 PM 72.0 °F 30.0 °F 21% 29.83 in 10.0 mi WNW 23.0 mph 35.7 mph N/A   Clear
10:53 PM 68.0 °F 33.1 °F 27% 29.86 in 10.0 mi West 8.1 mph - N/A   Clear
11:53 PM 66.0 °F 35.1 °F 32% 29.87 in 10.0 mi WNW 12.7 mph 24.2 mph N/A   Clear